Regional Weather Roundup
Issued by NWS Burlington, VT

Home | Current Version | Previous Version | Text Only | Print | Product List | Glossary On
Versions: 1 2 3 4 5 6 7 8 9 10 11 12 13 14 15 16 17 18 19 20 21 22 23 24 25 26 27 28 29 30 31 32 33 34 35 36 37 38 39 40 41 42 43 44 45 46 47 48 49 50
982
ASUS41 KBTV 282310
RWRBTV
VERMONT REGIONAL WEATHER ROUNDUP
NATIONAL WEATHER SERVICE BURLINGTON VT
700 PM EDT WED JUN 28 2017

NOTE: "FAIR" INDICATES FEW OR NO CLOUDS BELOW 12,000 FEET WITH NO
SIGNIFICANT WEATHER AND/OR OBSTRUCTIONS TO VISIBILITY.

* THESE REPORTS ARE NOT UNDER NWS QUALITY CONTROL AND/OR DO NOT
  REPORT WEATHER SUCH AS PRECIPITATION AND FOG.

VTZ001>019-290000-
_____VERMONT_____


CITY           SKY/WX    TMP DP  RH WIND       PRES   REMARKS
BURLINGTON     MOSUNNY   73  49  42 NW6       29.99R
MONTPELIER     MOSUNNY   67  53  61 NW5       30.06R
MORRISVILLE    MOSUNNY   69  52  54 N3        30.02R
ST. JOHNSBURY*   N/A     69  53  56 MISG      29.99R
LYNDONVILLE*   FAIR      66  49  53 W8        30.03R
MIDDLEBURY*    FAIR      71  59  66 CALM      30.01R
RUTLAND*       PTSUNNY   70  50  49 VRB6      30.03S
SPRINGFIELD    SUNNY     72  48  42 W8        30.03S
HIGHGATE*      FAIR      69  53  56 CALM      29.98F
NEWPORT*       HVY RAIN  64  52  64 W5        30.02R
BENNINGTON     SUNNY     71  48  43 SW13G22   30.05R

_____LAKE CHAMPLAIN_____


CITY           SKY/WX    TMP DP  RH WIND       PRES   REMARKS
BURTON ISLAND*   N/A     70  57  64 NW1         N/A
COLCHESTER RF*   N/A     70  55  60 NW8         N/A
DIAMOND ISL*     N/A     73  48  40 W7          N/A

$$

NYZ007-026>031-035-052-083-087-290000-
_____NORTHERN NEW YORK_____


CITY           SKY/WX    TMP DP  RH WIND       PRES   REMARKS
PLATTSBURGH    MOSUNNY   72  49  44 W5        29.98R
SARANAC LAKE   CLOUDY    66  46  48 W8        30.03R
MASSENA        CLOUDY    69  55  60 SW10      30.00S
OGDENSBURG*    FAIR      72  52  49 SW13G18   29.99F
POTSDAM*       MOSUNNY   70  55  60 SW12      30.01S
WATERTOWN      SUNNY     68  53  58 SW7       30.03S
FT DRUM        SUNNY     70  48  45 W10       30.03S
ALBANY         MOSUNNY   74  49  41 W8        30.04S
GLENS FALLS    SUNNY     74  46  36 W9        30.02R

$$
NHZ002-005-011-290000-
_____NEW HAMPSHIRE_____


CITY           SKY/WX    TMP DP  RH WIND       PRES   REMARKS
LEBANON        MOSUNNY   71  53  52 SW3       30.01S
KEENE          SUNNY     73  51  46 W6        30.04R
MT WASHINGTON  FOG       41  41 100 W39         N/A  VSB 0   WCI  28
PLYMOUTH       FAIR      69  52  54 NW5       30.01S
WHITEFIELD     PTSUNNY   67  51  56 SW3       30.01S

$$

_____REGIONAL QUEBEC LOCATIONS_____


CITY           SKY/WX    TMP DP  RH WIND       PRES   REMARKS
MONTREAL       LGT RAIN  64  52  63 W15G29    29.99R
QUEBEC CITY    PTSUNNY   63  50  63 SE3       29.92F
SHERBROOKE     MOSUNNY   61  55  82 S5        29.98S

_____REGIONAL ONTARIO LOCATIONS_____


CITY           SKY/WX    TMP DP  RH WIND       PRES   REMARKS
OTTAWA         TSTM      63  59  88 SE13      29.97S

______KEY______
VSB  - VISIBILITY IN MILES
WCI  - WIND CHILL INDEX
HX   - HEAT INDEX
$$
NNNN




USA.gov is the U.S. government's official web portal to all federal, state and local government web resources and services.